Location: Middelsbur
(53.6609°N, 7.5020°E)
Time: 12:46:19
(UTC+00:00)

Cosmos 1371 Rocket - Pass Details

Date: 06 July 2020
Orbit: 753 x 790 km, 74.0° (Epoch: 06 August)

Event Time Altitude Azimuth Distance (km) Brightness Sun altitude
Rises 21:56:54 0° 333° (NNW) 3,243 9.5 -10.9°
Reaches altitude 10° 21:59:16 10° 333° (NNW) 2,318 8.1 -11.0°
Maximum altitude 22:04:32 85° 247° (WSW) 783 4.0 -11.3°
Enters shadow 22:08:52 16° 158° (SSE) 1,951 5.4 -11.5°
